Weather History for Holloman AFB, NM

Change the Weather History Date:

Wednesday, March 6, 2013

  Actual Average Record
Temperature  
Mean Temperature 56 °F -  
Max Temperature 72 °F 63 °F 80 °F (2006)
Min Temperature 39 °F 34 °F 26 °F (1997)
Degree Days  
Heating Degree Days 10    
Growing Degree Days 6 (Base 50)    
Moisture  
Dew Point 21 °F    
Average Humidity 29    
Maximum Humidity 44    
Minimum Humidity 15    
Precipitation  
Precipitation 0.00 in - - ()
Sea Level Pressure  
Sea Level Pressure 30.01 in    
Wind  
Wind Speed 7 mph (SE)    
Max Wind Speed 16 mph    
Max Gust Speed -    
Visibility 10 miles    
Events      
Averages and records for this station are not official NWS values.
T = Trace of Precipitation, MM = Missing Value Source: NWS Daily Summary

Daily Weather History Graph

Daily Weather History Graph

Search for Another Location

Airport:

Trip Planner

Search our weather history database for the weather conditions in past years. The results will help you decide how hot, cold, wet, or windy it might be!

Date:

Astronomy

Mar. 06, 2013 Rise Set
Actual Time 6:25 AM MST 6:05 PM MST
Civil Twilight 6:01 AM MST 6:30 PM MST
Nautical Twilight 5:32 AM MST 6:59 PM MST
Astronomical Twilight 5:04 AM MST 7:27 PM MST
Moon 2:24 AM MST (3/6) 1:03 PM MST (3/6)
Length of Visible Light 12h 29m
Length of Day
11h 40m
Waning Crescent, 29% of the Moon is Illuminated
Mar 6
Waning Crescent
Mar 11
New
Mar 19
First Quarter
Mar 27
Full
Apr 2
Last Quarter

Hourly Weather History & Observations

Time (MST) Temp. Windchill Dew Point Humidity Pressure Visibility Wind Dir Wind Speed Gust Speed Precip Events Conditions
12:58 AM 40.6 °F 36.0 °F 17.6 °F 39% 30.14 in 10.0 mi North 6.9 mph - N/A   Clear
1:58 AM 41.4 °F 36.2 °F 18.3 °F 40% 30.11 in 10.0 mi North 8.1 mph - N/A   Clear
2:58 AM 39.2 °F 35.0 °F 17.1 °F 41% 30.09 in 10.0 mi NNW 5.8 mph - N/A   Clear
3:58 AM 41.0 °F 36.4 °F 18.9 °F 41% 30.10 in 10.0 mi North 6.9 mph - N/A   Mostly Cloudy
4:58 AM 39.6 °F 35.4 °F 18.9 °F 43% 30.12 in 10.0 mi NNE 5.8 mph - N/A   Mostly Cloudy
5:58 AM 39.4 °F 33.8 °F 18.9 °F 44% 30.13 in 10.0 mi NNE 8.1 mph - N/A   Clear
6:58 AM 40.3 °F 37.1 °F 19.2 °F 43% 30.11 in 10.0 mi NNE 4.6 mph - N/A   Scattered Clouds
7:58 AM 43.7 °F 38.6 °F 20.5 °F 40% 30.14 in 10.0 mi WNW 9.2 mph - N/A   Clear
8:58 AM 48.4 °F - 21.4 °F 35% 30.14 in 10.0 mi North 1.2 mph - N/A   Partly Cloudy
9:58 AM 52.2 °F - 21.6 °F 30% 30.13 in 10.0 mi Calm Calm - N/A   Scattered Clouds
10:58 AM 57.7 °F - 22.3 °F 25% 30.11 in 10.0 mi SSE 5.8 mph - N/A   Partly Cloudy
11:58 AM 61.0 °F - 22.6 °F 23% 30.06 in 10.0 mi Variable 4.6 mph - N/A   Partly Cloudy
12:58 PM 65.1 °F - 23.0 °F 20% 30.01 in 10.0 mi SW 5.8 mph - N/A   Clear
1:58 PM 67.8 °F - 23.4 °F 19% 29.96 in 10.0 mi Variable 4.6 mph - N/A   Clear
2:58 PM 70.2 °F - 22.5 °F 17% 29.92 in 10.0 mi SSE 16.1 mph - N/A   Clear
3:58 PM 72.3 °F - 22.6 °F 15% 29.89 in 10.0 mi South 8.1 mph - N/A   Clear
4:58 PM 72.9 °F - 23.0 °F 15% 29.88 in 10.0 mi SSW 10.4 mph - N/A   Clear
5:58 PM 69.8 °F - 23.5 °F 18% 29.88 in 10.0 mi South 9.2 mph - N/A   Clear
6:58 PM 63.0 °F - 22.8 °F 22% 29.90 in 10.0 mi SSE 10.4 mph - N/A   Clear
7:58 PM 60.6 °F - 22.8 °F 23% 29.89 in 10.0 mi SSE 11.5 mph - N/A   Clear
8:58 PM 58.5 °F - 22.3 °F 25% 29.89 in 10.0 mi SSE 12.7 mph - N/A   Clear
9:58 PM 59.7 °F - 23.2 °F 25% 29.90 in 10.0 mi SSE 13.8 mph - N/A   Clear
10:58 PM 54.7 °F - 22.5 °F 29% 29.90 in 10.0 mi SSE 10.4 mph - N/A   Clear
11:58 PM 52.5 °F - 22.3 °F 31% 29.88 in 10.0 mi SSE 10.4 mph - N/A   Clear